Printer-friendly version

IAU Minor Planet Center

Minor Planet Center

MPEC 2006-V57 : 2006 VF13

The following Minor Planet Electronic Circular may be linked-to from your own Web pages, but must not otherwise be redistributed electronically.


Read MPEC 2006-V56 Read MPEC 2006-V58


M.P.E.C. 2006-V57                                Issued 2006 Nov. 14, 20:40 UT

     The Minor Planet Electronic Circulars contain information on unusual
         minor planets and routine data on comets.  They are published
   on behalf of Commission 20 of the International Astronomical Union by the
          Minor Planet Center, Smithsonian Astrophysical Observatory,
                          Cambridge, MA 02138, U.S.A.

             Prepared using the Tamkin Foundation Computer Network

                              MPC@CFA.HARVARD.EDU
          URL http://cfa-www.harvard.edu/iau/mpc.html  ISSN 1523-6714

                                   2006 VF13

Observations:
     K06V13F* C2006 11 13.39701 09 27 41.07 +43 16 08.9          19.1   EV057704
     K06V13F  C2006 11 13.40922 09 27 23.88 +43 10 11.4          19.3   EV057704
     K06V13F  C2006 11 13.42142 09 27 06.77 +43 04 13.6          19.3   EV057704
     K06V13F  C2006 11 13.44584 09 26 32.32 +42 52 13.8          19.3   EV057704
     K06V13F  C2006 11 14.37560 09 07 03.64 +34 30 01.2          19.0 V EV057G96
     K06V13F  C2006 11 14.37584 09 07 03.39 +34 29 53.4          18.9 V EV057G96
     K06V13F  C2006 11 14.37608 09 07 03.07 +34 29 44.6          18.8 V EV057G96
     K06V13F  C2006 11 14.37633 09 07 02.78 +34 29 36.8          18.7 V EV057G96

Observer details:
704 Lincoln Laboratory ETS, New Mexico.  Observers M. Bezpalko, L. Manguso,
    D. Torres, R. Kracke, H. Love, G. Spitz, J. Kistler.  Measurers J. Stuart,
    J. Kommers.  1.0-m f/2.15 reflector + CCD.
G96 Mt. Lemmon Survey.  Observer R. A. Kowalski.  Measurers E. C. Beshore,
    E. J. Christensen, G. J. Garradd, A. R. Gibbs, A. D. Grauer, R. E. Hill,
    R. A. Kowalski, S. M. Larson, R. H. McNaught.  1.5-m reflector + CCD.

Orbital elements:
2006 VF13                                                Earth MOID = 0.0117 AU
Epoch 2006 Sept. 22.0 TT = JDT 2454000.5                MPC
M 335.06035              (2000.0)            P               Q
n   0.65836362     Peri.  161.10166     +0.77881242     -0.52839012
a   1.3086560      Node   235.54978     +0.50964745     +0.84719311
e   0.2432367      Incl.   24.19897     +0.36566471     -0.05538686
P   1.50           H   23.0           G   0.15           U   7
Residuals in seconds of arc
061113 704  0.3+  0.3+    061113 704  0.1+  0.2+    061114 G96  0.1-  0.4-
061113 704  0.4-  0.3-    061114 G96  0.4-  0.1-    061114 G96  0.2+  0.3+
061113 704  0.1+  0.2-    061114 G96  0.2+  0.2+

Ephemeris:
2006 VF13                a,e,i = 1.31, 0.24, 24                  q = 0.9903
Date    TT    R. A. (2000) Decl.     Delta      r     Elong.  Phase     V
2006 11 11    10 28.74   +58 43.2    0.0549   0.996    94.2    82.6    19.6
2006 11 13    09 36.59   +46 26.3    0.0457   0.998    98.7    78.7    19.0
2006 11 15    08 54.98   +28 19.9    0.0406   1.000   103.9    73.8    18.6
2006 11 17    08 22.78   +07 33.8    0.0412   1.002   107.8    69.9    18.5
2006 11 19    07 57.88   -10 13.5    0.0474   1.005   109.2    68.3    18.8
2006 11 21    07 38.34   -22 50.5    0.0572   1.008   108.8    68.1    19.2
2006 11 23    07 22.71   -31 18.4    0.0692   1.011   108.0    68.2    19.6
2006 11 25    07 09.95   -37 03.2    0.0824   1.015   107.2    68.3    20.0
2006 11 27    06 59.35   -41 04.9    0.0962   1.018   106.5    68.3    20.4
2006 11 29    06 50.38   -43 59.9    0.110    1.022   106.0    68.1    20.7
2006 12 01    06 42.69   -46 10.0    0.125    1.027   105.5    67.8    20.9
2006 12 03    06 36.00   -47 48.9    0.139    1.031   105.1    67.4    21.2
2006 12 05    06 30.12   -49 05.1    0.154    1.036   104.8    66.9    21.4
2006 12 07    06 24.88   -50 04.4    0.168    1.040   104.6    66.4    21.6
2006 12 09    06 20.17   -50 50.6    0.183    1.045   104.4    65.9    21.7
2006 12 11    06 15.92   -51 26.3    0.197    1.051   104.2    65.3    21.9

Kyle E. Smalley              (C) Copyright 2006 MPC           M.P.E.C. 2006-V57

Read MPEC 2006-V56 Read MPEC 2006-V58


Our Web policy. Index to the CBAT/MPC/ICQ pages.


Valid HTML 4.01!